Regional Weather Roundup
Issued by NWS Northern Indiana

Home | Current Version | Previous Version | Graphics & Text | Print | Product List | Glossary On
Versions: 1 2 3 4 5 6 7 8 9 10 11 12 13 14 15 16 17 18 19 20 21 22 23 24 25 26 27 28 29 30 31 32 33 34 35 36 37 38 39 40 41 42 43 44 45 46 47 48 49 50
000
ASUS43 KIWX 181300
RWRIWX

KIWX WEATHER ROUNDUP
NATIONAL WEATHER SERVICE NORTHERN INDIANA
800 AM EST MON DEC 18 2017

NOTE: "FAIR" INDICATES FEW OR NO CLOUDS BELOW 12,000 FEET WITH NO
SIGNIFICANT WEATHER AND/OR OBSTRUCTIONS TO VISIBILITY.

* THESE STATIONS ARE NOT UNDER NWS QUALITY CONTROL. THEY ALSO MAY NOT
  REPORT WEATHER SUCH AS PRECIPITATION OR FOG.

INZ001>027-181400-
NORTHERN INDIANA

CITY           SKY/WX    TMP DP  RH WIND       PRES   REMARKS
GARY*          CLOUDY    45  43  93 SW9       29.96R
KNOX*          CLOUDY    41  41 100 SW9       29.97R
SOUTH BEND     CLOUDY    38  38 100 SW10      29.96R FOG
ELKHART*       CLOUDY    39  37  93 SW8       29.95S FOG
GOSHEN         CLOUDY    40  39  97 SW13      29.96R FOG
MONTICELLO*    DRIZZLE   42  40  95 SW9       30.00R
WARSAW*        DRIZZLE   39  39 100 SW7       29.97S
FORT WAYNE     LGT RAIN  40  39  97 SW12      29.99S FOG
PERU/GRISSOM   CLOUDY    41  41 100 SW12      30.00R

$$
INZ028>050-181400-
CENTRAL INDIANA

CITY           SKY/WX    TMP DP  RH WIND       PRES   REMARKS
LAFAYETTE      CLOUDY    43  42  97 SW7       30.02R
KOKOMO*        CLOUDY    42  41  96 SW15      30.02R
MUNCIE*        CLOUDY    42  39  89 SW10      30.02R FOG
INDIANAPOLIS   CLOUDY    43  41  93 SW10      30.05S

$$
MIZ043>046-050>051-056>058-064>065-071>073-077>080-181400-
SOUTHWEST LOWER MICHIGAN

CITY           SKY/WX    TMP DP  RH WIND       PRES   REMARKS
BATTLE CREEK   CLOUDY    37  36  96 SW13      29.92S FOG
BENTON HARBOR  LGT RAIN  41  39  93 SW15      29.93R FOG
COLDWATER*     MIX PCPN  38  38 100 SW9       29.94S
HILLSDALE*     LGT RAIN  36  36 100 S7        29.93S VSB 1
HOLLAND        CLOUDY    39  38  96 W14       29.90S FOG
GRAND RAPIDS   LGT RAIN  37  37 100 S12       29.89S FOG
KALAMAZOO      CLOUDY    38  37  97 SW10      29.93R FOG
STURGIS*       CLOUDY    38  38  98 SW12      29.94S FOG
THREE RIVERS*  CLOUDY    38  38  99 SW8       29.94R FOG

$$
OHZ001>008-015>018-024>025-181400-
NORTHWEST OHIO

CITY           SKY/WX    TMP DP  RH WIND       PRES   REMARKS
DEFIANCE       CLOUDY    39  35  86 S7        29.99R
FINDLAY        CLOUDY    39  35  86 S12       29.99F
TOLEDO EXPRESS CLOUDY    38  38 100 S8        29.98S
TOLEDO METCALF CLOUDY    39  36  89 SW12      30.00R
LIMA           CLOUDY    38  37  97 S9        30.00F FOG

$$
AND FOR LAKE MICHIGAN COASTAL AND OPEN LAKE BUOY OBSERVATIONS

STATION/POSITION TEMP    WIND        PRES    VSBY  WAVE
                 AIR SEA DIR/SP/G                  HT/PER
                 (F)     (DEG/KT/KT) (MB)    (MI)  (FT/S)
CALUMET HARBOR    44     220/  6/ 10 1013.3S
MICHIGAN CITY     42     200/ 13/ 15   N/A
BURNS HARBOR      43     220/ 10/ 15 1014.9R
SAINT JOSEPH      40     210/ 13/ 16 1014.2

$$
&&



USA.gov is the U.S. government's official web portal to all federal, state and local government web resources and services.